Location: Batesville
(34.7480°N, 83.6110°W)
Time: 23:07:33
(UTC-04:00)

Tiangong 2 - Visible Passes

Search period start: 26 April 2018 00:00
Search period end: 06 May 2018 00:00
Orbit: 381 x 388 km, 42.8° (Epoch: 26 April)

Date Brightness Start Highest point End Pass type
(mag) Time Alt. Az. Time Alt. Az. Time Alt. Az.
02 May 2.9 06:05:22 10° SSW 06:07:59 24° SE 06:10:37 10° E visible
03 May 3.6 05:07:49 12° SSE 05:08:33 12° SE 05:09:55 10° ESE visible
04 May 1.6 05:43:14 18° SW 05:45:19 48° SSE 05:48:23 10° ENE visible
05 May 3.0 04:46:20 23° SE 04:46:20 23° SE 04:48:24 10° E visible
